SP4FDH-13 Weather Reports


Display with metric or nautical units.
time (UTC)temp
F
wind
direction
speed
MPH
gust
MPH
rain 1hr
in
rain 24hr
in
rain mn
in
humidity
%
barometer
mb
20260506123810 77 0.0 0.0 0.00 0.00 0.00 68 1003.3
20260506122834 75 0.0 0.0 0.00 0.00 0.00 69 1003.5
20260506121858 76 0.0 0.0 0.00 0.00 0.00 68 1003.5
20260506120921 76 0.0 0.0 0.00 0.00 0.00 69 1003.6
20260506115945 75 0.0 0.0 0.00 0.00 0.00 70 1003.5
20260506115007 74 0.0 0.0 0.00 0.00 0.00 71 1003.6
20260506114031 74 0.0 0.0 0.00 0.00 0.00 70 1003.6
20260506113055 74 0.0 0.0 0.00 0.00 0.00 70 1003.7
20260506112118 74 0.0 0.0 0.00 0.00 0.00 71 1003.6
20260506111142 74 0.0 0.0 0.00 0.00 0.00 72 1003.7
20260506110206 74 0.0 0.0 0.00 0.00 0.00 72 1003.7
20260506105230 74 0.0 0.0 0.00 0.00 0.00 73 1004.0
20260506104253 74 0.0 0.0 0.00 0.00 0.00 73 1004.2
20260506103318 75 0.0 0.0 0.00 0.00 0.00 69 1004.1
20260506102344 74 0.0 0.0 0.00 0.00 0.00 70 1004.2
20260506101409 74 0.0 0.0 0.00 0.00 0.00 68 1004.3
20260506100434 74 0.0 0.0 0.00 0.00 0.00 72 1004.3
20260506095456 73 0.0 0.0 0.00 0.00 0.00 74 1004.3
20260506094519 73 0.0 0.0 0.00 0.00 0.00 74 1004.3
20260506093542 72 0.0 0.0 0.00 0.00 0.00 77 1004.3
20260506092604 71 0.0 0.0 0.00 0.00 0.00 82 1004.2
20260506091628 71 0.0 0.0 0.00 0.00 0.00 81 1004.6
20260506090649 69 0.0 0.0 0.00 0.00 0.00 87 1004.9
20260506085713 69 0.0 0.0 0.00 0.00 0.00 84 1004.8
20260506084735 68 0.0 0.0 0.00 0.00 0.00 89 1004.9
20260506083758 68 0.0 0.0 0.00 0.00 0.00 89 1005.0
20260506082821 68 0.0 0.0 0.00 0.00 0.00 90 1005.0
20260506081846 68 0.0 0.0 0.00 0.00 0.00 88 1005.2
20260506080909 68 0.0 0.0 0.00 0.00 0.00 89 1005.2
20260506073043 66 0.0 0.0 0.00 0.00 0.00 93 1005.3
20260506071129 65 0.0 0.0 0.00 0.00 0.00 10 1005.5
20260506070151 63 0.0 0.0 0.00 0.00 0.00 10 1005.8
20260506062332 67 0.0 0.0 0.00 0.00 0.00 89 1005.8
20260506060417 64 0.0 0.0 0.00 0.00 0.00 98 1006.1
20260506050633 60 0.0 0.0 0.00 0.00 0.00 10 1006.7
20260506044717 58 0.0 0.0 0.00 0.00 0.00 10 1006.9
20260506043740 57 0.0 0.0 0.00 0.00 0.00 10 1007.2
20260506042803 57 0.0 0.0 0.00 0.00 0.00 10 1007.4
20260506041826 56 0.0 0.0 0.00 0.00 0.00 10 1007.4
20260506040850 56 0.0 0.0 0.00 0.00 0.00 10 1007.5
20260506035914 55 0.0 0.0 0.00 0.00 0.00 10 1007.6
20260506034937 55 0.0 0.0 0.00 0.00 0.00 10 1007.7
20260506034001 54 0.0 0.0 0.00 0.00 0.00 10 1007.7
20260506033025 54 0.0 0.0 0.00 0.00 0.00 10 1007.9
20260506032048 54 0.0 0.0 0.00 0.00 0.00 10 1007.8
20260506031111 54 0.0 0.0 0.00 0.00 0.00 10 1007.7
20260506030135 54 0.0 0.0 0.00 0.00 0.00 10 1007.7
20260506025159 54 0.0 0.0 0.00 0.00 0.00 10 1007.6
20260506024222 54 0.0 0.0 0.00 0.00 0.00 10 1007.7
20260506023246 54 0.0 0.0 0.00 0.00 0.00 10 1007.8
20260506022309 54 0.0 0.0 0.00 0.00 0.00 10 1007.6
20260506021333 54 0.0 0.0 0.00 0.00 0.00 10 1007.6
20260506020356 54 0.0 0.0 0.00 0.00 0.00 10 1007.6
20260506015420 54 0.0 0.0 0.00 0.00 0.00 10 1007.8
20260506014444 54 0.0 0.0 0.00 0.00 0.00 10 1007.7
20260506013507 54 0.0 0.0 0.00 0.00 0.00 10 1007.7
20260506012530 54 0.0 0.0 0.00 0.00 0.00 10 1007.6
20260506011554 55 0.0 0.0 0.00 0.00 0.00 10 1007.4
20260506010617 55 0.0 0.0 0.00 0.00 0.00 10 1007.5
20260506005641 55 0.0 0.0 0.00 0.00 0.00 10 1007.4
20260506004704 55 0.0 0.0 0.00 0.00 0.00 10 1007.4
20260506003728 55 0.0 0.0 0.00 0.00 0.00 10 1007.3
20260506002752 56 0.0 0.0 0.00 0.00 0.00 10 1007.4
20260506001816 56 0.0 0.0 0.00 0.00 0.00 10 1007.3
20260506000840 56 0.0 0.0 0.00 0.00 0.00 10 1007.2
20260505235903 56 0.0 0.0 0.00 0.00 0.00 10 1007.4
20260505234928 56 0.0 0.0 0.00 0.00 0.00 10 1007.5
20260505233951 56 0.0 0.0 0.00 0.00 0.00 10 1007.4
20260505233015 56 0.0 0.0 0.00 0.00 0.00 10 1007.4
20260505232040 56 0.0 0.0 0.00 0.00 0.00 10 1007.5
20260505231103 57 0.0 0.0 0.00 0.00 0.00 10 1007.6
20260505230128 57 0.0 0.0 0.00 0.00 0.00 10 1007.6
20260505225152 57 0.0 0.0 0.00 0.00 0.00 10 1007.6
20260505224216 57 0.0 0.0 0.00 0.00 0.00 10 1007.7
20260505223240 57 0.0 0.0 0.00 0.00 0.00 10 1007.5
20260505222306 57 0.0 0.0 0.00 0.00 0.00 10 1007.4
20260505221328 58 0.0 0.0 0.00 0.00 0.00 10 1007.4
20260505220352 58 0.0 0.0 0.00 0.00 0.00 10 1007.3
20260505215416 59 0.0 0.0 0.00 0.00 0.00 10 1007.4
20260505214440 59 0.0 0.0 0.00 0.00 0.00 10 1007.4
20260505213504 59 0.0 0.0 0.00 0.00 0.00 10 1007.4
20260505212528 59 0.0 0.0 0.00 0.00 0.00 98 1007.4
20260505211552 60 0.0 0.0 0.00 0.00 0.00 97 1007.4
20260505210617 60 0.0 0.0 0.00 0.00 0.00 97 1007.4
20260505205641 60 0.0 0.0 0.00 0.00 0.00 95 1007.4
20260505204705 60 0.0 0.0 0.00 0.00 0.00 95 1007.3
20260505203730 61 0.0 0.0 0.00 0.00 0.00 93 1007.5
20260505202754 61 0.0 0.0 0.00 0.00 0.00 94 1007.6
20260505201818 61 0.0 0.0 0.00 0.00 0.00 93 1007.7
20260505200842 61 0.0 0.0 0.00 0.00 0.00 94 1007.7
20260505195907 61 0.0 0.0 0.00 0.00 0.00 92 1007.6
20260505194931 62 0.0 0.0 0.00 0.00 0.00 94 1007.5
20260505193957 62 0.0 0.0 0.00 0.00 0.00 94 1007.5
20260505193017 62 0.0 0.0 0.00 0.00 0.00 94 1007.4
20260505192042 63 0.0 0.0 0.00 0.00 0.00 92 1007.5
20260505191107 63 0.0 0.0 0.00 0.00 0.00 95 1007.3
20260505190132 64 0.0 0.0 0.00 0.00 0.00 10 1007.2
20260505185156 65 0.0 0.0 0.00 0.00 0.00 10 1007.1
20260505184221 66 0.0 0.0 0.00 0.00 0.00 10 1007.0
20260505183245 66 0.0 0.0 0.00 0.00 0.00 10 1006.8
20260505182310 67 0.0 0.0 0.00 0.00 0.00 10 1006.8
20260505181334 67 0.0 0.0 0.00 0.00 0.00 10 1006.7
20260505180358 67 0.0 0.0 0.00 0.00 0.00 10 1006.6
20260505175423 68 0.0 0.0 0.00 0.00 0.00 10 1006.5
20260505174448 68 0.0 0.0 0.00 0.00 0.00 10 1006.4
20260505173513 69 0.0 0.0 0.00 0.00 0.00 10 1006.3
20260505172538 69 0.0 0.0 0.00 0.00 0.00 10 1006.2
20260505171602 69 0.0 0.0 0.00 0.00 0.00 10 1006.1
20260505170627 70 0.0 0.0 0.00 0.00 0.00 10 1006.2
20260505165652 70 0.0 0.0 0.00 0.00 0.00 10 1006.1
20260505164718 72 0.0 0.0 0.00 0.00 0.00 98 1005.9
20260505163743 73 0.0 0.0 0.00 0.00 0.00 99 1005.8
20260505162808 74 0.0 0.0 0.00 0.00 0.00 10 1006.0
20260505161832 74 0.0 0.0 0.00 0.00 0.00 10 1006.1
20260505160857 74 0.0 0.0 0.00 0.00 0.00 10 1006.0
20260505153035 73 0.0 0.0 0.00 0.00 0.00 10 1005.9
20260505152100 73 0.0 0.0 0.00 0.00 0.00 10 1006.0
20260505151125 73 0.0 0.0 0.00 0.00 0.00 10 1006.0
20260505140414 72 0.0 0.0 0.00 0.00 0.00 10 1007.1
20260505124728 76 0.0 0.0 0.00 0.00 0.00 78 1007.3